Main page
METAR-TAF:

METAR-TAF

Airports :

Sania Ramel Airport

Tétouan, Morocco

latitude: 35-35N, longitude: 005-20W, elevation: 10 m

Current weather observation

The report was made 1 hour and 4 minutes ago, at 08:00 UTC
Wind 3 kt from the Southwest
Temperature 16°C
Humidity 88%
Pressure 1004 hPa
Visibility: 2500 m
Scattered clouds at a height of 1000 ft
Scattered clouds at a height of 3300 ft

METAR: GMTN 180800Z 22003KT 2500 SCT010 SCT033 16/14 Q1004 NOSIG

Time: 09:04 (09:04 UTC)


TAF: missing

Weather observations and forecasts of more than 4000 airports (METAR and TAF reports).

The available stations are represented by yellow and red dots on the map.

Hover mouse over dot to see the name of the station.

Then click to see weather observations and forecasts.

To change the map : click on the green buttons with a black cross to zoom in, on the green button with a dash to zoom out, or on the green arrows for adjacent maps.


METAR-TAF: